GFSSW_500_rhum_009.txt.gz
RH
11 11 9 12 33 27 18 29 30 29 29 31 10 11 22 19 22 20 25 35 28 45 45 32 53 72 71 79 48 66 80 73 82 93 96 92 96 93 96 96 91 38 38 34 18
12 11 10 23 31 16 23 28 29 32 34 19 17 20 34 36 39 27 30 48 63 80 68 48 61 64 74 70 32 58 83 76 96 93 98 97 98 96 92 76 69 35 22 27 16
13 12 12 22 26 24 26 26 31 34 30 27 37 36 39 45 42 36 36 49 64 68 70 57 68 69 75 30 46 78 75 83 94 87 97 94 96 93 43 11 15 11 12 22 13
14 13 13 24 20 23 28 25 35 33 37 60 64 62 50 56 41 42 46 62 70 64 64 59 59 64 41 43 75 80 75 90 97 95 88 95 73 64 37 10 11 13 14 17 11
15 14 15 20 15 20 34 38 40 30 45 61 68 75 51 58 45 51 48 71 87 57 50 44 46 57 63 92 98 82 95 97 95 86 91 67 55 46 26 10 14 13 13 14 14
15 14 18 19 23 32 44 48 48 30 35 44 54 77 59 53 61 60 54 73 64 24 23 53 92 98 91 85 97 97 91 92 90 96 84 62 46 18 10 12 13 14 18 23 20
16 15 22 21 29 36 46 45 51 36 35 45 65 79 60 52 64 60 60 56 30 37 39 99 89 84 96 95 91 90 72 60 45 83 64 57 21 10 7 10 14 20 19 23 22
16 16 24 24 30 38 42 49 51 46 45 69 76 83 74 56 57 90 38 43 63 73 90 95 94 96 89 98 95 95 92 75 40 32 54 48 14 10 13 17 33 26 23 20 21
17 16 23 26 33 38 50 54 52 44 60 73 91 96 79 56 54 74 35 67 67 100 99 97 100 97 97 92 86 84 66 54 28 39 45 29 9 6 13 20 30 25 22 21 25
18 19 24 31 30 41 57 53 55 63 68 84 98 50 35 52 55 48 35 96 100 95 88 76 98 89 88 81 83 58 53 30 28 25 12 13 16 17 48 52 53 24 22 19 22
18 22 26 31 27 47 57 61 70 69 82 85 48 28 25 43 41 41 50 94 92 92 95 98 96 88 83 81 63 42 22 24 22 21 21 26 22 32 32 31 30 25 21 22 22
17 22 32 33 34 52 64 78 79 74 65 39 28 30 39 36 37 41 63 96 100 98 100 92 95 93 85 76 66 35 39 78 74 32 19 24 37 26 18 16 23 21 18 22 25
18 22 36 29 43 60 70 71 75 32 33 32 43 43 50 48 35 46 86 90 100 99 84 94 72 86 78 68 74 45 81 91 73 66 31 39 23 19 20 22 23 26 27 24 25
18 25 34 28 54 63 69 36 26 31 34 37 36 30 28 26 28 35 71 88 99 95 78 76 33 78 77 64 66 31 68 61 80 88 87 49 31 24 22 19 22 25 28 36 35
19 26 28 27 67 54 32 26 27 33 30 28 28 27 24 24 26 30 50 96 96 94 89 71 67 45 72 62 50 68 90 83 58 47 43 39 28 25 19 21 25 28 29 44 46
19 26 16 51 51 24 21 21 24 22 20 21 22 19 18 19 19 20 30 38 78 77 72 41 34 34 39 43 78 61 42 54 45 28 22 26 31 16 21 24 22 31 44 42 49
19 25 14 48 26 17 17 16 16 18 19 23 24 25 20 17 13 11 11 14 20 26 23 26 50 42 48 54 36 33 23 21 22 19 17 21 21 18 26 30 39 34 25 32 33
21 15 36 32 18 14 12 12 21 27 26 27 26 27 29 24 25 24 24 26 27 26 31 32 35 34 32 29 22 21 22 22 22 24 24 21 20 26 28 28 24 18 17 18 19
23 15 40 14 14 11 11 18 25 22 20 18 15 14 13 13 12 13 16 15 20 29 30 28 27 28 25 23 21 20 21 23 21 22 23 21 18 17 18 16 15 16 18 20 22
25 32 27 19 12 14 19 22 23 17 16 13 12 12 12 12 12 11 11 10 8 8 8 9 10 12 15 14 15 18 22 25 25 19 17 18 16 16 17 18 19 20 20 22 25
22 26 16 13 17 18 20 21 18 14 12 12 13 13 13 14 15 16 16 14 14 11 9 12 13 17 23 24 26 26 29 23 20 21 19 20 20 20 17 17 16 16 18 26 30
17 17 11 13 19 19 19 16 14 11 12 14 13 10 7 7 8 14 17 14 14 12 12 14 18 20 24 29 29 28 19 18 22 18 16 16 17 17 16 15 16 20 24 29 35
12 25 10 16 18 18 14 12 15 12 15 10 8 6 7 23 17 11 10 9 11 15 16 20 27 29 25 27 24 18 18 18 17 17 18 18 18 18 17 16 15 17 20 23 26
11 25 10 16 18 18 12 12 19 16 13 10 8 7 14 38 38 30 17 13 14 14 15 24 29 27 28 28 24 17 19 20 18 18 18 19 18 19 19 19 18 17 17 19 20
12 21 10 14 16 14 11 14 19 15 14 10 9 8 11 32 38 31 24 22 18 13 20 21 26 27 27 26 23 19 20 21 20 21 20 20 21 22 20 20 21 21 21 21 22
18 16 13 17 18 13 10 16 22 15 13 10 10 11 8 13 31 32 25 24 19 15 21 23 27 26 24 24 22 21 24 22 23 22 21 21 20 21 21 22 22 22 22 23 24
19 14 15 17 16 10 10 14 16 13 12 11 10 12 8 6 9 25 25 22 16 20 20 22 26 26 22 24 22 18 22 23 22 21 20 19 19 18 20 23 24 24 24 25 25

GFSSW_500_rhum_012.txt.gz
RH
17 15 14 13 11 11 23 22 21 21 27 32 33 17 10 16 24 21 19 20 24 25 22 21 18 36 52 80 73 67 52 93 86 73 79 92 90 93 97 95 98 91 64 20 17
18 16 15 14 12 12 22 22 25 27 27 33 25 16 22 25 33 38 22 26 43 39 52 54 50 39 74 82 74 60 54 100 82 78 92 98 95 95 94 94 98 63 40 18 16
21 17 16 14 13 13 19 19 23 31 33 33 22 36 36 34 39 36 30 36 42 62 80 70 66 71 79 72 75 32 48 85 92 94 90 88 98 92 96 47 52 57 26 22 22
26 21 17 15 15 14 18 20 33 38 37 32 47 59 68 49 51 37 40 43 54 65 69 75 65 72 72 81 46 32 55 90 90 96 96 86 85 52 34 24 14 15 17 26 13
31 24 18 15 16 16 21 27 40 46 47 30 55 64 70 57 49 40 50 54 70 72 65 65 63 60 72 57 41 66 93 93 95 93 99 79 50 42 19 14 13 12 15 13 13
33 25 18 15 16 19 23 33 45 45 49 31 36 52 69 55 46 50 57 64 90 62 58 46 39 56 87 100 94 90 95 94 98 96 86 76 34 24 14 19 15 15 17 19 23
34 27 18 16 17 22 29 36 41 46 42 32 40 48 72 59 49 59 57 64 54 28 31 37 75 92 82 100 99 84 86 85 74 86 68 49 21 14 9 12 13 17 19 26 21
31 28 19 17 18 24 30 33 45 50 42 44 62 74 74 53 54 64 44 58 42 29 62 74 81 95 99 95 90 85 71 70 70 68 65 43 28 10 12 19 21 21 24 23 21
28 26 19 18 19 29 27 32 51 46 42 58 69 89 89 63 59 65 46 68 82 70 96 99 96 91 94 91 84 95 82 60 36 31 51 41 18 8 30 30 39 31 26 24 24
25 24 19 18 22 29 25 39 52 50 52 69 74 84 71 71 49 88 59 87 96 87 97 97 98 99 98 97 89 90 55 53 42 40 37 28 22 22 41 67 72 55 36 25 22
22 22 18 19 24 31 26 45 50 53 67 67 83 88 47 52 60 46 82 93 96 97 99 98 98 98 99 91 87 65 55 66 50 37 24 35 42 47 68 58 50 50 28 23 21
20 21 18 19 28 33 34 48 56 71 70 75 84 57 37 43 45 51 85 73 93 99 97 98 97 99 98 82 72 45 60 87 60 40 46 50 52 46 39 27 24 20 28 29 24
20 21 18 19 32 29 41 48 55 63 75 64 52 28 28 36 36 56 90 100 98 86 98 100 87 96 96 88 77 51 86 93 97 66 47 42 30 27 22 22 23 23 23 21 20
21 21 18 20 33 34 52 45 58 50 43 32 33 28 33 38 33 51 86 94 74 97 96 97 80 92 87 81 74 73 63 76 94 87 78 57 82 24 24 26 29 27 26 24 28
24 21 18 23 30 38 53 55 63 27 29 31 36 41 41 44 33 40 93 100 100 100 97 85 54 55 70 77 64 67 52 26 43 59 62 52 38 67 23 29 36 26 27 31 41
24 22 18 28 25 41 45 42 27 27 28 30 29 26 25 25 28 33 43 88 100 100 100 90 93 76 59 48 71 67 45 88 91 80 53 28 29 76 22 29 22 21 25 38 50
24 21 18 25 21 46 31 23 21 26 26 28 27 24 23 22 23 28 34 53 82 84 80 71 72 50 48 47 37 62 59 46 40 40 34 23 21 16 19 23 26 23 38 33 26
26 20 18 21 23 40 18 17 18 21 18 19 19 17 17 14 16 17 23 29 34 51 66 71 34 40 48 47 53 62 37 26 24 22 39 22 18 22 29 31 31 24 19 18 17
25 18 20 17 35 30 13 12 12 16 18 25 28 28 28 26 24 20 19 19 22 22 27 29 30 33 32 34 32 25 22 25 26 22 20 22 23 20 18 17 15 15 17 19 21
24 18 22 21 36 13 10 8 16 21 24 23 20 19 17 16 14 15 17 18 19 23 29 31 29 29 29 27 24 24 20 18 19 21 22 19 19 17 15 16 17 18 19 18 20
23 18 18 29 28 9 7 11 21 20 18 16 13 13 12 11 12 12 11 11 10 9 8 9 9 10 12 14 16 17 19 24 28 20 19 20 20 19 19 17 16 15 14 17 22
22 18 18 24 18 7 10 15 21 16 14 12 12 12 12 13 14 15 15 15 15 13 12 9 10 12 14 15 20 23 26 27 19 21 19 17 17 17 17 16 16 15 16 18 20
22 20 23 26 14 7 16 19 19 14 12 12 13 13 11 9 9 8 8 11 11 12 11 12 11 12 14 22 23 27 26 17 19 20 16 16 19 18 19 19 19 19 19 19 19
20 26 34 21 14 14 21 20 15 12 12 13 10 8 7 14 23 15 11 10 9 10 13 15 15 21 26 30 30 27 20 17 18 16 17 18 20 20 19 20 22 22 22 22 22
18 23 30 15 10 19 24 19 12 11 14 11 10 8 8 20 35 36 34 22 14 13 14 14 18 26 30 27 29 25 20 16 18 21 20 21 22 23 21 20 20 21 21 22 23
19 23 22 22 13 23 22 15 12 14 14 11 10 9 8 12 28 36 28 27 25 22 16 13 20 24 25 25 25 25 23 19 20 24 23 24 22 22 20 20 19 18 18 22 24
24 21 28 20 16 24 18 12 14 16 14 13 10 11 10 8 8 23 30 27 24 22 14 16 21 24 24 24 21 17 20 22 24 26 26 24 24 22 20 21 22 23 25 27 27

GFSSW_500_rhum_015.txt.gz
RH
24 25 21 19 16 15 14 10 15 19 21 26 30 33 17 13 25 28 26 20 22 24 28 23 21 25 40 53 64 84 57 79 90 72 60 51 57 69 68 57 76 96 83 87 78
26 29 25 23 20 17 15 13 17 19 22 33 35 28 14 25 32 29 36 32 22 25 28 28 39 47 53 68 70 82 56 84 73 76 93 55 70 68 86 72 92 86 64 28 27
28 29 29 27 23 18 15 14 20 23 32 38 36 25 36 56 46 37 35 28 33 30 65 68 76 76 59 72 79 74 72 98 85 97 61 60 64 82 91 99 98 99 67 37 62
32 30 25 25 25 18 15 15 21 29 37 45 41 37 58 58 64 44 33 34 46 58 72 89 87 77 66 75 76 71 55 67 70 63 60 70 70 100 94 95 89 27 26 44 17
36 33 25 26 26 18 16 16 24 33 31 45 44 38 52 57 57 45 36 43 48 59 71 87 76 75 82 64 66 52 59 52 82 71 93 82 92 96 61 13 15 13 17 16 13
38 32 28 31 25 19 16 19 30 32 35 45 39 33 39 52 57 46 45 60 71 70 73 80 65 57 58 82 94 98 79 91 90 92 95 87 90 68 28 32 13 13 17 18 20
38 36 33 36 23 19 17 25 28 26 39 46 32 30 42 63 56 54 59 55 64 88 84 70 44 49 71 84 78 90 99 98 96 95 81 96 40 31 16 16 15 15 18 20 19
30 31 34 36 22 18 18 27 24 27 44 42 40 38 66 69 57 64 56 61 57 29 37 56 49 63 73 92 100 93 98 100 90 94 65 84 73 10 10 15 12 15 20 21 19
24 26 30 29 21 18 19 28 24 32 40 39 42 59 74 74 62 62 47 58 35 43 46 59 82 97 97 95 97 95 95 96 79 55 67 76 73 12 26 20 22 24 22 23 22
20 20 26 26 20 18 20 30 25 33 47 45 59 63 68 74 77 57 54 70 59 85 90 96 99 99 96 98 97 97 88 84 87 37 45 75 68 16 32 38 47 47 40 28 24
19 16 21 27 19 18 23 34 26 37 45 50 60 61 83 62 54 66 80 87 69 94 100 97 100 100 100 96 99 93 82 75 78 38 50 82 46 16 33 59 57 54 52 34 30
22 18 20 23 19 18 29 29 26 40 49 59 65 67 82 63 67 50 88 96 95 96 90 89 95 100 100 98 96 88 86 90 59 28 43 42 91 34 51 59 40 45 34 27 34
24 22 22 20 19 19 32 26 32 49 51 60 69 72 73 38 66 70 79 99 100 100 98 98 100 100 97 98 95 92 78 99 89 62 36 96 99 35 35 34 28 30 37 32 27
21 25 24 17 18 21 31 30 40 54 60 56 59 52 35 26 54 57 82 93 92 99 99 98 93 100 96 100 100 98 62 90 68 94 82 44 79 94 26 18 24 31 31 31 32
18 24 24 21 19 22 33 32 52 54 53 68 35 26 25 28 69 38 57 80 92 88 90 97 94 89 100 99 62 98 85 59 54 72 99 83 64 90 59 27 27 43 42 35 32
14 22 24 22 19 25 31 24 62 48 46 31 21 24 33 39 40 80 55 83 96 96 92 89 84 69 97 60 53 45 56 40 30 95 88 78 97 79 92 62 31 31 28 27 29
10 21 29 22 18 26 23 32 60 27 29 18 17 28 34 39 36 32 38 77 92 94 99 99 85 81 81 71 35 39 78 96 85 95 74 95 71 48 99 75 44 22 20 18 19
6 19 29 24 19 23 18 43 37 14 34 16 22 25 25 29 26 26 36 72 94 99 96 80 65 45 40 56 98 44 100 92 95 86 75 83 63 66 55 31 21 17 23 28 28
4 16 27 24 20 26 21 52 15 17 27 20 24 23 30 24 23 25 30 92 80 52 100 100 100 76 28 44 55 100 51 54 61 31 25 30 65 76 24 21 20 16 16 15 16
3 22 32 25 22 23 23 27 13 15 15 17 17 15 20 14 13 13 26 92 36 16 41 81 97 47 28 30 29 31 40 27 26 26 24 77 79 73 28 16 15 16 17 18 17
2 22 34 24 23 20 18 13 12 14 12 16 21 26 73 36 23 22 98 38 23 26 29 40 36 36 27 24 57 26 23 22 28 41 29 22 62 45 20 19 18 16 16 14 14
3 18 30 23 21 20 25 9 8 17 16 21 19 17 14 16 11 12 21 17 11 10 11 10 9 9 28 9 11 14 18 20 23 25 21 21 24 19 18 16 16 16 16 17 17
3 32 41 23 20 35 24 9 9 20 18 17 14 11 10 11 12 13 14 13 14 15 14 13 11 9 9 10 12 18 25 27 27 20 18 19 26 16 16 18 18 19 20 21 22
22 27 40 21 30 60 17 6 13 20 16 14 10 11 13 14 12 10 10 10 10 11 14 13 12 12 14 97 62 24 26 28 20 14 18 16 17 17 16 19 19 21 21 21 20
16 30 33 19 21 46 17 8 18 19 14 10 12 13 9 8 7 9 18 14 9 9 10 10 12 14 18 22 29 24 26 25 16 15 17 19 22 22 23 22 21 20 20 20 20
11 33 38 34 24 38 11 10 20 18 12 11 11 9 8 8 20 43 42 37 30 18 13 13 14 16 22 29 26 23 24 24 21 20 20 22 23 28 25 22 23 24 24 27 32
37 41 32 52 35 34 10 13 22 19 11 13 11 9 8 8 14 31 38 36 30 30 26 20 13 17 21 25 23 18 22 25 26 26 28 26 27 26 22 23 26 28 32 34 36

GFSSW_500_rhum_021.txt.gz
RH
32 28 26 34 36 34 30 27 17 17 13 11 11 10 17 17 29 22 42 34 36 32 30 24 27 25 21 31 33 40 64 62 72 99 94 82 89 83 83 83 55 40 38 45 66
36 34 32 36 39 36 31 26 20 17 14 12 12 11 17 26 30 45 40 44 30 23 25 28 35 27 43 87 85 45 56 82 90 90 94 94 81 95 77 82 68 88 56 56 88
44 41 36 39 42 39 33 26 24 19 14 13 11 11 17 32 27 41 40 36 29 26 29 36 33 31 44 89 92 50 79 96 69 58 60 63 93 86 90 83 84 92 94 96 94
48 45 42 43 43 41 36 27 27 20 13 13 12 12 21 28 22 31 43 37 32 40 50 78 61 61 87 71 83 70 98 95 66 61 56 89 67 77 80 74 72 81 89 96 96
51 49 48 46 43 41 36 28 26 18 12 12 12 12 22 21 22 26 49 37 38 40 54 76 83 94 86 82 81 92 100 97 88 96 78 92 69 91 67 71 85 76 88 87 88
55 51 52 51 44 42 32 29 26 16 12 12 12 12 24 19 26 42 48 38 46 46 56 74 91 83 88 89 83 93 99 86 100 44 62 74 96 89 83 70 90 83 69 31 34
52 55 50 53 46 41 26 27 25 14 12 12 11 11 25 22 35 34 43 40 55 56 58 63 80 70 75 94 100 95 92 100 96 57 74 87 90 76 54 20 12 25 10 7 9
53 48 50 51 46 34 24 26 24 13 12 12 10 16 25 25 38 56 48 47 52 50 73 75 68 73 61 64 61 68 95 100 85 65 89 74 39 38 28 18 14 14 13 14 15
55 49 51 51 45 30 24 21 22 13 12 12 10 22 25 25 34 33 44 44 49 52 61 69 57 59 62 85 78 81 95 85 96 88 74 89 70 51 60 32 60 21 33 17 13
57 56 54 51 43 31 23 21 18 13 14 13 12 23 29 25 39 53 45 52 50 42 44 59 48 62 63 78 93 99 98 86 75 77 94 97 64 51 21 35 86 77 45 56 14
79 67 63 55 40 32 23 18 18 14 16 11 12 24 32 25 24 36 46 59 52 63 57 54 78 89 80 99 73 95 96 98 87 90 47 49 60 91 31 5 14 25 59 15 14
95 94 81 70 46 34 24 20 20 13 13 12 12 27 28 28 37 33 43 57 72 63 70 72 84 73 86 89 94 98 94 96 82 96 59 90 81 51 11 15 13 13 51 15 11
95 90 88 63 48 38 29 23 23 16 14 12 14 22 34 30 42 33 43 80 57 76 100 87 80 98 99 77 100 100 96 100 97 89 28 51 74 56 35 38 25 18 19 13 11
90 84 79 72 49 43 30 30 27 17 14 16 18 29 33 41 43 33 37 85 83 67 60 90 75 92 97 94 92 93 99 88 78 71 37 54 64 90 99 85 75 36 16 13 15
82 62 70 51 39 36 34 33 29 19 16 17 18 30 34 30 38 25 37 98 80 81 68 93 88 90 70 86 65 100 88 92 87 93 98 83 93 92 82 73 100 83 38 19 14
72 40 42 31 22 32 31 32 27 20 21 22 17 28 21 13 22 23 43 74 74 88 81 87 82 73 57 80 95 82 55 70 78 70 92 64 83 96 71 89 68 88 69 40 25
74 47 41 44 20 32 25 27 27 21 28 25 16 26 14 8 15 18 63 68 84 62 85 92 87 95 75 73 51 71 33 20 16 54 27 72 83 94 83 96 70 39 40 57 27
91 97 71 41 47 38 13 21 22 22 38 37 22 33 8 13 18 30 97 51 45 39 74 79 74 53 67 86 98 75 37 48 52 76 65 97 96 92 89 78 69 46 58 42 18
80 47 78 17 45 42 24 24 20 26 45 37 50 36 12 30 52 40 49 30 37 34 60 44 82 89 85 97 94 64 71 81 75 90 87 75 76 77 66 70 76 62 39 16 15
51 68 27 10 51 32 42 38 18 36 48 59 53 31 17 65 88 85 44 32 40 68 85 76 82 80 98 81 48 34 72 74 63 42 15 21 60 68 85 91 71 26 18 18 17
14 21 13 7 13 11 43 38 19 44 49 53 41 48 25 81 87 61 39 86 83 100 94 88 90 89 77 84 52 30 33 37 30 27 18 18 56 86 77 59 46 25 19 18 17
8 13 7 6 17 25 33 33 20 46 51 54 43 80 28 96 97 72 34 100 99 91 98 96 76 34 27 38 35 28 25 72 56 34 20 12 17 37 63 58 65 42 18 17 16
4 5 5 6 10 18 19 13 26 34 44 42 24 40 27 100 97 68 51 74 92 99 95 41 16 18 27 26 18 31 23 25 15 10 20 17 21 26 24 26 25 22 19 17 17
5 4 4 4 10 13 16 8 23 35 46 53 15 35 21 99 96 67 49 90 62 62 24 22 20 18 14 10 18 16 41 30 15 13 16 22 23 25 22 20 17 15 15 18 21
5 5 4 5 10 13 14 8 29 32 43 42 12 24 16 67 100 100 71 28 18 12 14 11 9 11 13 13 15 13 43 99 28 20 19 27 22 21 22 22 21 13 13 14 21
4 5 4 4 9 11 10 10 29 30 53 32 10 23 24 22 31 30 14 11 11 11 12 11 10 9 8 10 11 13 29 43 41 31 25 26 26 24 19 17 17 19 21 24 29
2 3 4 4 6 15 13 11 26 31 50 23 17 24 31 20 18 15 14 12 9 14 13 18 13 12 13 12 12 12 16 27 28 34 36 31 30 30 30 18 16 20 26 32 31

GFSSW_500_rhum_024.txt.gz
RH
27 31 33 35 33 31 34 34 35 24 19 14 12 9 9 9 15 23 34 29 31 31 22 29 28 22 26 23 30 94 98 95 94 88 88 73 60 68 71 90 91 93 56 43 34
32 35 39 41 41 36 38 37 36 26 19 15 12 9 10 9 19 25 26 35 35 31 23 30 28 29 29 42 80 94 52 90 88 80 71 68 86 75 71 81 85 87 70 69 44
39 42 46 46 48 44 41 39 38 27 18 15 12 9 9 9 19 22 23 39 35 34 39 32 38 43 33 89 97 78 50 88 89 75 69 57 54 41 55 87 77 67 68 76 63
43 49 50 51 53 51 45 40 38 26 17 15 11 10 10 12 18 20 28 36 36 36 49 72 70 76 87 96 96 86 76 86 76 68 51 51 43 72 68 69 70 59 78 90 96
51 57 55 54 58 57 50 43 37 22 17 15 11 10 10 17 18 25 26 35 36 43 48 66 71 95 94 98 90 88 84 71 61 70 84 97 87 100 91 88 68 73 95 97 96
62 61 59 57 60 60 52 45 37 21 16 16 11 10 9 20 19 25 34 32 36 54 49 65 69 88 79 89 97 88 83 71 61 88 78 70 82 99 84 98 89 93 94 93 84
66 63 60 57 63 62 52 45 33 18 16 17 11 10 10 19 17 29 31 26 38 54 63 47 64 88 65 87 98 82 99 76 69 79 61 78 86 91 55 22 38 53 41 20 23
67 64 60 59 62 62 51 45 30 18 18 16 11 10 12 19 18 22 19 23 36 53 66 67 77 81 60 72 74 68 92 67 71 81 86 60 59 41 36 23 22 15 20 17 13
68 64 61 59 62 66 53 42 28 17 17 14 12 10 17 19 22 31 43 33 48 50 64 60 76 78 72 73 58 62 87 85 83 87 98 76 64 59 48 59 35 34 20 18 26
77 77 65 64 68 86 65 39 28 17 17 12 13 12 17 20 18 20 34 41 47 41 59 71 64 64 72 79 90 66 59 79 96 85 78 43 60 61 36 11 52 54 71 29 14
95 95 93 85 92 94 75 39 27 19 16 13 12 10 19 17 15 21 29 31 38 44 48 61 56 55 68 99 94 98 92 82 94 95 99 62 51 58 56 14 27 39 55 19 13
96 98 96 97 95 96 88 47 30 22 20 15 14 12 21 16 15 28 25 30 42 60 61 48 55 66 95 93 95 98 69 90 72 60 87 69 48 55 60 14 39 29 32 48 44
96 97 80 94 96 96 93 61 34 26 22 17 14 15 16 22 19 27 27 27 41 62 66 70 66 78 96 95 90 83 97 88 93 74 94 84 63 51 48 31 68 56 18 15 9
96 96 97 95 97 96 93 62 37 31 24 21 16 18 22 25 28 36 32 24 40 64 87 78 61 89 99 90 70 74 89 75 83 99 94 29 66 35 29 40 61 70 45 14 18
92 94 98 95 98 94 84 65 44 33 26 22 18 18 20 29 21 26 30 15 30 47 66 89 63 74 96 87 82 80 78 84 99 87 42 65 71 86 75 78 56 70 65 69 31
90 97 94 99 97 82 88 74 45 34 27 22 18 23 22 24 15 21 17 12 49 51 82 75 64 72 96 100 81 68 70 86 84 92 75 68 84 70 95 99 85 72 71 37 32
78 63 99 96 80 85 82 53 43 35 28 24 20 26 22 23 11 10 17 13 43 76 96 78 68 76 76 84 92 74 55 60 62 75 92 90 52 52 96 83 78 78 50 31 32
97 40 61 100 93 73 34 38 45 33 29 28 24 24 23 26 8 12 13 12 34 65 85 74 83 92 95 78 48 50 72 39 36 26 32 60 24 48 93 93 85 53 59 64 23
60 85 29 100 88 84 49 58 39 33 27 31 28 25 23 25 7 16 13 15 40 42 43 72 86 84 58 56 46 64 70 61 48 43 49 88 70 68 68 70 36 63 30 17 18
15 35 78 71 94 97 50 51 48 27 25 30 27 29 30 24 8 24 17 24 38 48 44 42 92 99 100 82 89 48 85 98 84 72 73 41 22 23 23 38 78 63 28 21 20
11 18 51 86 78 98 62 45 54 34 24 30 31 33 32 19 18 44 35 36 32 40 49 68 98 71 65 69 87 54 31 60 97 86 36 22 29 23 27 36 49 39 35 21 18
9 18 22 40 84 76 54 54 57 39 24 27 40 40 43 20 43 58 48 33 48 48 80 89 78 81 84 91 56 44 32 32 36 41 48 22 18 35 44 65 54 26 21 18 18
7 9 14 6 48 62 51 49 57 34 27 25 32 49 50 21 36 58 87 25 41 47 59 79 93 98 83 54 54 25 38 28 43 83 67 19 19 34 27 32 35 20 16 17 15
7 6 8 7 29 54 60 46 39 23 26 24 31 42 44 23 26 71 62 26 50 62 97 86 79 29 17 26 31 17 18 48 33 12 11 12 24 40 27 26 24 18 15 15 15
5 7 8 11 20 38 51 46 24 16 22 29 27 37 55 20 21 57 57 22 57 60 95 87 46 30 22 20 13 14 9 22 17 64 63 17 23 34 30 18 15 15 12 11 12
4 4 8 8 8 19 39 41 26 12 17 17 25 50 50 15 17 21 80 30 44 66 64 51 41 33 11 10 12 14 14 11 22 97 96 50 30 32 29 23 19 19 16 16 19
3 3 5 7 6 6 21 32 17 9 13 24 35 59 45 14 27 14 85 98 92 62 22 17 17 16 13 11 9 9 9 11 19 65 34 28 26 27 28 25 22 24 28 30 28

GFSSW_500_rhum_030.txt.gz
RH
25 26 27 27 27 27 25 22 30 37 39 37 38 37 24 16 12 12 10 11 13 18 28 36 23 28 34 30 26 24 84 86 91 89 76 85 83 87 77 98 86 80 75 71 84
24 26 27 28 30 29 29 27 29 40 42 40 40 37 21 16 13 12 11 10 13 19 29 39 28 28 34 31 30 37 100 78 99 100 100 92 89 91 90 78 68 65 62 66 64
30 30 30 30 31 30 32 31 28 41 46 44 41 38 21 16 14 12 10 11 13 20 32 40 43 42 32 31 51 78 100 98 100 99 99 93 91 84 76 71 65 66 63 71 62
37 36 34 36 38 35 36 34 29 40 48 48 42 40 22 15 16 12 10 11 14 20 29 44 52 56 37 53 68 99 100 100 97 91 93 79 79 86 62 61 49 49 55 65 74
48 47 42 39 65 48 39 38 32 42 52 50 44 40 22 16 15 12 10 12 16 20 27 49 59 67 38 74 95 93 77 81 79 90 84 94 88 86 64 58 66 86 77 75 86
68 68 59 51 50 50 39 37 39 47 56 52 47 39 22 17 14 12 10 17 21 23 31 49 67 84 78 80 84 81 93 56 64 70 89 85 75 76 79 72 94 98 92 95 97
65 60 59 71 60 53 56 53 51 51 59 53 48 38 23 16 14 12 10 17 19 25 28 48 48 86 88 58 78 77 80 96 100 88 66 91 92 96 87 75 91 88 95 95 82
86 86 86 91 84 79 76 74 61 58 60 54 51 36 25 16 14 12 9 14 18 21 27 42 50 72 90 82 67 83 85 86 96 94 78 92 69 54 50 44 61 67 28 41 43
96 97 95 94 96 91 79 76 65 61 60 57 54 47 23 16 14 12 9 13 19 24 30 36 56 59 72 95 69 88 100 95 73 90 93 76 48 67 66 70 59 33 26 21 17
88 94 97 95 87 83 91 93 86 70 64 60 56 56 24 18 15 12 10 12 18 26 34 46 56 63 55 99 78 72 89 93 71 80 93 73 48 31 65 62 76 68 36 24 19
91 98 99 92 95 94 72 73 99 82 69 60 60 56 24 19 14 13 11 12 15 23 39 50 58 58 58 86 83 78 65 70 85 83 68 67 56 35 37 48 56 96 60 23 20
89 98 100 94 95 94 84 81 98 94 74 68 65 60 23 19 16 14 14 16 17 25 43 52 56 56 62 72 84 72 72 88 99 93 57 51 58 27 18 36 34 61 82 28 21
100 99 100 95 90 98 93 76 96 93 90 88 86 61 22 20 17 16 16 18 22 27 39 44 55 55 52 74 100 84 92 98 100 63 77 45 33 44 25 31 52 41 45 31 38
91 98 97 94 90 90 89 78 95 94 89 92 92 69 36 23 18 18 19 17 23 32 36 50 62 58 45 67 95 100 92 96 100 85 70 76 59 46 25 72 63 75 60 38 21
64 87 94 92 88 92 90 96 84 89 81 89 95 84 34 25 21 21 21 14 22 30 53 44 58 38 65 74 69 89 75 67 68 60 49 57 42 45 17 21 64 61 80 68 37
64 72 87 86 96 93 89 100 87 96 71 73 91 69 32 27 21 19 21 17 16 18 40 48 49 59 59 58 58 66 61 51 46 46 44 53 45 40 47 56 88 87 66 77 64
51 75 73 83 51 78 88 99 95 76 77 78 78 55 34 28 21 20 23 18 13 16 26 46 52 52 56 65 67 57 57 54 53 51 48 60 45 44 68 59 60 74 64 57 50
28 71 69 71 42 77 74 87 78 64 78 81 74 40 32 28 20 20 24 21 16 12 24 38 47 56 53 75 74 59 58 62 56 58 65 54 38 30 64 35 68 68 73 49 49
19 38 75 50 40 78 82 74 55 61 84 96 72 46 35 29 23 22 27 25 19 11 18 38 44 51 66 76 85 81 78 70 61 58 58 47 36 30 52 50 48 56 53 43 53
17 17 37 52 11 67 78 62 58 68 87 98 72 44 38 31 26 24 28 25 19 9 18 44 62 61 76 90 80 76 77 74 63 49 44 43 44 37 43 47 52 47 66 51 38
12 14 23 66 13 56 44 46 60 81 98 97 96 44 38 34 29 27 29 27 15 14 22 54 67 80 75 81 98 77 52 51 70 70 70 49 35 62 42 30 34 60 70 53 44
12 14 17 47 51 56 31 44 58 78 97 98 85 43 34 32 28 28 29 29 20 13 15 23 54 69 62 86 96 77 64 71 73 58 74 57 17 41 25 22 24 26 21 36 55
8 14 11 13 56 42 30 47 53 87 98 97 69 38 31 28 30 29 30 31 26 23 20 37 47 52 52 52 65 64 67 68 53 42 40 14 10 24 66 34 23 20 17 17 32
5 9 8 8 23 34 35 45 48 78 98 85 31 31 26 27 28 37 37 36 36 31 36 49 46 36 34 40 71 71 67 64 55 49 28 20 35 34 28 24 31 17 21 18 19
3 7 10 14 16 17 20 35 60 60 96 77 38 28 25 27 32 37 40 41 38 42 43 39 38 46 48 73 79 67 52 61 52 51 33 17 12 15 16 34 45 18 21 25 25
3 5 10 13 14 17 15 16 43 68 96 82 62 37 32 38 38 58 60 52 44 49 43 42 45 39 59 77 77 78 26 16 19 20 16 8 7 13 12 46 44 27 26 25 24
4 4 7 13 12 13 9 13 27 53 94 89 67 40 49 51 60 64 65 59 55 72 71 62 48 47 94 92 98 78 22 19 17 8 8 8 10 12 10 12 48 58 41 29 28

GFSSW_500_rhum_033.txt.gz
RH
23 23 23 23 25 25 26 26 27 29 30 28 36 42 40 38 32 17 12 13 10 9 12 24 39 22 22 25 23 25 68 91 97 100 93 89 88 83 73 78 63 66 62 67 69
29 28 26 25 24 25 27 28 30 31 34 31 33 47 44 40 34 16 13 14 10 10 14 24 38 44 23 23 25 49 100 86 99 100 100 98 89 91 97 87 70 84 68 60 70
34 34 34 32 30 30 31 32 34 33 37 34 33 48 48 41 35 26 15 14 10 13 17 25 40 41 25 24 28 63 98 81 92 95 97 94 86 95 96 87 78 77 68 61 59
38 37 36 38 38 36 36 36 51 48 43 38 36 50 52 43 38 32 15 13 9 14 18 30 43 36 21 36 52 67 96 95 89 89 95 91 93 84 87 79 67 59 52 48 45
64 49 49 45 43 43 46 53 48 61 48 41 42 57 54 44 37 36 17 13 9 13 16 32 42 34 30 39 56 58 75 92 82 81 97 96 94 90 73 71 64 50 51 66 65
76 74 74 65 70 76 76 66 71 60 49 49 53 60 58 46 40 42 19 13 8 12 17 27 39 36 41 56 79 77 52 56 64 75 87 79 86 81 83 90 82 53 67 71 90
79 82 83 78 77 60 70 64 80 68 64 72 66 68 60 48 45 55 20 13 9 13 17 27 38 36 27 44 89 88 100 84 99 99 100 93 94 90 90 94 94 87 90 96 97
74 74 78 90 85 87 86 85 90 79 71 68 76 70 63 52 52 56 18 13 9 13 16 29 38 40 27 40 82 100 100 90 98 97 100 97 96 90 75 89 90 72 88 74 25
61 77 79 87 92 95 97 92 91 96 92 80 81 79 67 53 55 47 18 13 11 12 16 30 33 46 41 34 78 97 98 93 96 96 98 95 93 83 87 78 36 32 39 56 28
67 71 81 79 87 91 92 94 90 81 98 97 86 87 70 57 54 45 19 14 12 12 16 28 29 49 47 30 79 96 97 87 98 88 99 80 67 90 64 74 44 31 28 28 25
71 79 88 88 86 97 95 87 87 77 84 91 88 94 79 58 55 54 20 14 14 15 18 27 28 42 37 30 73 86 89 89 73 97 96 81 57 75 60 54 86 71 25 22 24
71 77 85 91 85 83 97 88 89 80 71 79 85 97 84 61 61 56 22 16 15 17 18 28 24 26 36 37 58 67 73 82 75 79 95 82 69 38 48 44 64 75 58 26 24
49 71 90 84 92 96 89 92 92 79 67 75 82 98 87 76 68 67 22 16 15 17 19 29 31 28 46 69 84 55 62 85 76 86 73 49 60 53 43 52 70 78 75 40 36
27 50 70 70 79 94 92 91 90 81 79 80 90 98 84 91 86 77 23 18 17 17 21 34 36 31 45 54 71 83 41 75 90 90 70 45 39 53 33 69 84 99 40 29 23
17 26 47 54 69 84 86 89 84 79 79 77 83 87 90 97 85 62 23 20 18 15 19 35 40 27 39 51 89 94 84 93 83 77 75 59 46 55 31 66 67 91 100 72 23
16 22 28 33 66 85 84 99 87 80 60 68 72 78 94 98 92 59 24 21 19 15 15 19 39 34 38 50 64 87 80 79 77 68 62 55 53 44 28 30 64 82 82 99 99
12 19 25 26 43 60 77 97 93 62 57 61 74 82 92 98 99 47 27 23 20 18 15 17 33 45 44 47 49 71 76 72 64 55 49 53 44 59 63 57 61 68 75 84 86
6 15 20 23 42 49 56 78 70 44 55 65 71 86 89 97 81 37 29 22 21 19 17 9 23 47 49 42 49 64 71 63 60 61 56 52 44 59 52 44 52 44 63 69 66
6 9 17 20 42 27 53 55 41 48 60 82 87 85 93 94 50 35 28 22 24 26 20 11 15 42 47 49 49 56 74 69 62 60 51 46 47 44 40 31 49 64 75 70 66
6 7 13 18 37 20 35 36 39 50 66 92 92 87 96 82 54 35 28 26 24 29 24 19 24 32 45 44 56 69 77 78 68 52 44 39 40 47 43 40 42 51 52 73 64
7 7 9 14 29 13 34 16 30 47 67 80 93 96 99 68 43 37 35 31 31 30 20 13 22 55 42 42 59 73 70 73 60 53 51 52 43 60 46 46 43 42 72 76 75
6 6 8 10 24 40 24 13 27 41 65 75 88 100 100 96 64 40 36 35 34 28 15 17 22 59 62 67 69 72 72 72 57 55 64 52 38 54 41 53 35 22 25 28 39
17 5 7 12 15 27 16 15 24 42 61 78 98 100 100 97 63 46 43 37 36 27 19 22 24 34 67 64 59 68 76 74 68 68 49 47 36 12 17 23 40 31 20 20 20
29 10 6 11 10 13 24 16 19 29 51 78 99 99 97 100 88 56 42 42 35 31 23 31 26 24 25 38 62 54 63 97 87 52 44 38 38 21 28 29 30 23 16 16 16
38 20 9 6 11 11 19 17 26 28 43 71 98 94 100 98 93 52 58 54 43 38 29 38 26 31 33 39 44 46 45 55 51 45 33 43 36 27 13 11 15 11 12 33 15
50 20 14 4 8 11 16 15 18 36 44 68 81 100 100 61 76 56 73 67 55 47 52 73 41 35 35 39 48 57 48 52 61 63 22 19 16 19 10 9 10 12 16 41 21
42 31 30 4 5 10 14 14 17 36 42 66 79 100 99 50 60 78 83 75 56 56 60 88 65 47 43 39 50 38 47 56 89 57 27 16 12 8 9 10 11 10 11 16 41